Year,Month,Day,Hour,Minute,Value (Times are PST for temperature in C)
2015,06,24,00,00,18.30
2015,06,24,00,01,18.30
2015,06,24,00,02,18.30
2015,06,24,00,03,18.30
2015,06,24,00,04,18.30
2015,06,24,00,05,18.30
2015,06,24,00,06,18.20
2015,06,24,00,07,18.20
2015,06,24,00,08,18.20
2015,06,24,00,09,18.20
2015,06,24,00,10,18.20
2015,06,24,00,11,18.20
2015,06,24,00,12,18.20
2015,06,24,00,13,18.20
2015,06,24,00,14,18.20
2015,06,24,00,15,18.20
2015,06,24,00,16,18.20
2015,06,24,00,17,18.20
2015,06,24,00,18,18.20
2015,06,24,00,19,18.10
2015,06,24,00,20,18.20
2015,06,24,00,21,18.20
2015,06,24,00,22,18.20
2015,06,24,00,23,18.20
2015,06,24,00,24,18.20
2015,06,24,00,25,18.20
2015,06,24,00,26,18.20
2015,06,24,00,27,18.20
2015,06,24,00,28,18.20
2015,06,24,00,29,18.20
2015,06,24,00,30,18.20
2015,06,24,00,31,18.20
2015,06,24,00,32,18.20
2015,06,24,00,33,18.20
2015,06,24,00,34,18.20
2015,06,24,00,35,18.20
2015,06,24,00,36,18.30
2015,06,24,00,37,18.30
2015,06,24,00,38,18.30
2015,06,24,00,39,18.30
2015,06,24,00,40,18.30
2015,06,24,00,41,18.30
2015,06,24,00,42,18.30
2015,06,24,00,43,18.30
2015,06,24,00,44,18.30
2015,06,24,00,45,18.30
2015,06,24,00,46,18.30
2015,06,24,00,47,18.30
2015,06,24,00,48,18.30
2015,06,24,00,49,18.30
2015,06,24,00,50,18.30
2015,06,24,00,51,18.30
2015,06,24,00,52,18.20
2015,06,24,00,53,18.20
2015,06,24,00,54,18.20
2015,06,24,00,55,18.20
2015,06,24,00,56,18.10
2015,06,24,00,57,18.10
2015,06,24,00,58,18.10
2015,06,24,00,59,18.10
2015,06,24,01,00,18.00
2015,06,24,01,01,18.00
2015,06,24,01,02,18.00
2015,06,24,01,03,18.00
2015,06,24,01,04,18.00
2015,06,24,01,05,17.90
2015,06,24,01,06,17.90
2015,06,24,01,07,17.90
2015,06,24,01,08,17.90
2015,06,24,01,09,17.90
2015,06,24,01,10,17.90
2015,06,24,01,11,17.90
2015,06,24,01,12,17.90
2015,06,24,01,13,17.90
2015,06,24,01,14,17.90
2015,06,24,01,15,17.90
2015,06,24,01,16,17.80
2015,06,24,01,17,17.80
2015,06,24,01,18,17.80
2015,06,24,01,19,17.80
2015,06,24,01,20,17.80
2015,06,24,01,21,17.80
2015,06,24,01,22,17.80
2015,06,24,01,23,17.80
2015,06,24,01,24,17.80
2015,06,24,01,25,17.80
2015,06,24,01,26,17.70
2015,06,24,01,27,17.70
2015,06,24,01,28,17.60
2015,06,24,01,29,17.60
2015,06,24,01,30,17.60
2015,06,24,01,31,17.60
2015,06,24,01,32,17.60
2015,06,24,01,33,17.50
2015,06,24,01,34,17.50
2015,06,24,01,35,17.50
2015,06,24,01,36,17.50
2015,06,24,01,37,17.50
2015,06,24,01,38,17.50
2015,06,24,01,39,17.50
2015,06,24,01,40,17.50
2015,06,24,01,41,17.50
2015,06,24,01,42,17.50
2015,06,24,01,43,17.40
2015,06,24,01,44,17.40
2015,06,24,01,45,17.40
2015,06,24,01,46,17.30
2015,06,24,01,47,17.30
2015,06,24,01,48,17.20
2015,06,24,01,49,17.20
2015,06,24,01,50,17.20
2015,06,24,01,51,17.10
2015,06,24,01,52,17.10
2015,06,24,01,53,17.00
2015,06,24,01,54,17.00
2015,06,24,01,55,16.90
2015,06,24,01,56,16.90
2015,06,24,01,57,16.90
2015,06,24,01,58,16.80
2015,06,24,01,59,16.80
2015,06,24,02,00,16.80
2015,06,24,02,01,16.70
2015,06,24,02,02,16.70
2015,06,24,02,03,16.70
2015,06,24,02,04,16.70
2015,06,24,02,05,16.70
2015,06,24,02,06,16.70
2015,06,24,02,07,16.70
2015,06,24,02,08,16.70
2015,06,24,02,09,16.70
2015,06,24,02,10,16.70
2015,06,24,02,11,16.70
2015,06,24,02,12,16.70
2015,06,24,02,13,16.70
2015,06,24,02,14,16.70
2015,06,24,02,15,16.70
2015,06,24,02,16,16.60
2015,06,24,02,17,16.60
2015,06,24,02,18,16.60
2015,06,24,02,19,16.60
2015,06,24,02,20,16.50
2015,06,24,02,21,16.50
2015,06,24,02,22,16.50
2015,06,24,02,23,16.40
2015,06,24,02,24,16.40
2015,06,24,02,25,16.40
2015,06,24,02,26,16.40
2015,06,24,02,27,16.40
2015,06,24,02,28,16.40
2015,06,24,02,29,16.40
2015,06,24,02,30,16.40
2015,06,24,02,31,16.40
2015,06,24,02,32,16.30
2015,06,24,02,33,16.30
2015,06,24,02,34,16.30
2015,06,24,02,35,16.30
2015,06,24,02,36,16.30
2015,06,24,02,37,16.30
2015,06,24,02,38,16.30
2015,06,24,02,39,16.30
2015,06,24,02,40,16.30
2015,06,24,02,41,16.30
2015,06,24,02,42,16.30
2015,06,24,02,43,16.30
2015,06,24,02,44,16.30
2015,06,24,02,45,16.30
2015,06,24,02,46,16.30
2015,06,24,02,47,16.40
2015,06,24,02,48,16.40
2015,06,24,02,49,16.40
2015,06,24,02,50,16.30
2015,06,24,02,51,16.30
2015,06,24,02,52,16.30
2015,06,24,02,53,16.30
2015,06,24,02,54,16.30
2015,06,24,02,55,16.30
2015,06,24,02,56,16.30
2015,06,24,02,57,16.30
2015,06,24,02,58,16.30
2015,06,24,02,59,16.30
2015,06,24,03,00,16.30
2015,06,24,03,01,16.30
2015,06,24,03,02,16.30
2015,06,24,03,03,16.30
2015,06,24,03,04,16.30
2015,06,24,03,05,16.40
2015,06,24,03,06,16.40
2015,06,24,03,07,16.40
2015,06,24,03,08,16.40
2015,06,24,03,09,16.40
2015,06,24,03,10,16.40
2015,06,24,03,11,16.40
2015,06,24,03,12,16.40
2015,06,24,03,13,16.40
2015,06,24,03,14,16.40
2015,06,24,03,15,16.40
2015,06,24,03,16,16.40
2015,06,24,03,17,16.40
2015,06,24,03,18,16.40
2015,06,24,03,19,16.40
2015,06,24,03,20,16.50
2015,06,24,03,21,16.50
2015,06,24,03,22,16.50
2015,06,24,03,23,16.60
2015,06,24,03,24,16.60
2015,06,24,03,25,16.60
2015,06,24,03,26,16.60
2015,06,24,03,27,16.60
2015,06,24,03,28,16.60
2015,06,24,03,29,16.50
2015,06,24,03,30,16.50
2015,06,24,03,31,16.50
2015,06,24,03,32,16.50
2015,06,24,03,33,16.50
2015,06,24,03,34,16.50
2015,06,24,03,35,16.50
2015,06,24,03,36,16.60
2015,06,24,03,37,16.60
2015,06,24,03,38,16.60
2015,06,24,03,39,16.60
2015,06,24,03,40,16.60
2015,06,24,03,41,16.60
2015,06,24,03,42,16.70
2015,06,24,03,43,16.70
2015,06,24,03,44,16.70
2015,06,24,03,45,16.70
2015,06,24,03,46,16.70
2015,06,24,03,47,16.70
2015,06,24,03,48,16.70
2015,06,24,03,49,16.70
2015,06,24,03,50,16.70
2015,06,24,03,51,16.70
2015,06,24,03,52,16.70
2015,06,24,03,53,16.70
2015,06,24,03,54,16.70
2015,06,24,03,55,16.70
2015,06,24,03,56,16.70
2015,06,24,03,57,16.70
2015,06,24,03,58,16.70
2015,06,24,03,59,16.60
2015,06,24,04,00,16.60
2015,06,24,04,01,16.60
2015,06,24,04,02,16.60
2015,06,24,04,03,16.60
2015,06,24,04,04,16.50
2015,06,24,04,05,16.50
2015,06,24,04,06,16.50
2015,06,24,04,07,16.50
2015,06,24,04,08,16.40
2015,06,24,04,09,16.40
2015,06,24,04,10,16.40
2015,06,24,04,11,16.40
2015,06,24,04,12,16.30
2015,06,24,04,13,16.30
2015,06,24,04,14,16.30
2015,06,24,04,15,16.30
2015,06,24,04,16,16.30
2015,06,24,04,17,16.30
2015,06,24,04,18,16.20
2015,06,24,04,19,16.20
2015,06,24,04,20,16.20
2015,06,24,04,21,16.20
2015,06,24,04,22,16.20
2015,06,24,04,23,16.20
2015,06,24,04,24,16.20
2015,06,24,04,25,16.20
2015,06,24,04,26,16.20
2015,06,24,04,27,16.20
2015,06,24,04,28,16.10
2015,06,24,04,29,16.10
2015,06,24,04,30,16.10
2015,06,24,04,31,16.10
2015,06,24,04,32,16.10
2015,06,24,04,33,16.10
2015,06,24,04,34,16.10
2015,06,24,04,35,16.10
2015,06,24,04,36,16.10
2015,06,24,04,37,16.10
2015,06,24,04,38,16.10
2015,06,24,04,39,16.10
2015,06,24,04,40,16.10
2015,06,24,04,41,16.10
2015,06,24,04,42,16.20
2015,06,24,04,43,16.20
2015,06,24,04,44,16.20
2015,06,24,04,45,16.20
2015,06,24,04,46,16.20
2015,06,24,04,47,16.20
2015,06,24,04,48,16.20
2015,06,24,04,49,16.20
2015,06,24,04,50,16.20
2015,06,24,04,51,16.20
2015,06,24,04,52,16.20
2015,06,24,04,53,16.20
2015,06,24,04,54,16.20
2015,06,24,04,55,16.20
2015,06,24,04,56,16.20
2015,06,24,04,57,16.20
2015,06,24,04,58,16.20
2015,06,24,04,59,16.20
2015,06,24,05,00,16.20
2015,06,24,05,01,16.20
2015,06,24,05,02,16.20
2015,06,24,05,03,16.20
2015,06,24,05,04,16.20
2015,06,24,05,05,16.20
2015,06,24,05,06,16.20
2015,06,24,05,07,16.20
2015,06,24,05,08,16.20
2015,06,24,05,09,16.20
2015,06,24,05,10,16.20
2015,06,24,05,11,16.10
2015,06,24,05,12,16.10
2015,06,24,05,13,16.10
2015,06,24,05,14,16.10
2015,06,24,05,15,16.10
2015,06,24,05,16,16.10
2015,06,24,05,17,16.10
2015,06,24,05,18,16.10
2015,06,24,05,19,16.10
2015,06,24,05,20,16.10
2015,06,24,05,21,16.00
2015,06,24,05,22,16.00
2015,06,24,05,23,16.00
2015,06,24,05,24,16.00
2015,06,24,05,25,16.00
2015,06,24,05,26,16.00
2015,06,24,05,27,15.90
2015,06,24,05,28,15.90
2015,06,24,05,29,15.90
2015,06,24,05,30,15.90
2015,06,24,05,31,15.90
2015,06,24,05,32,15.80
2015,06,24,05,33,15.80
2015,06,24,05,34,15.80
2015,06,24,05,35,15.80
2015,06,24,05,36,15.80
2015,06,24,05,37,15.80
2015,06,24,05,38,15.70
2015,06,24,05,39,15.70
2015,06,24,05,40,15.70
2015,06,24,05,41,15.70
2015,06,24,05,42,15.60
2015,06,24,05,43,15.60
2015,06,24,05,44,15.60
2015,06,24,05,45,15.60
2015,06,24,05,46,15.60
2015,06,24,05,47,15.50
2015,06,24,05,48,15.50
2015,06,24,05,49,15.50
2015,06,24,05,50,15.40
2015,06,24,05,51,15.40
2015,06,24,05,52,15.30
2015,06,24,05,53,15.30
2015,06,24,05,54,15.30
2015,06,24,05,55,15.20
2015,06,24,05,56,15.20
2015,06,24,05,57,15.10
2015,06,24,05,58,15.10
2015,06,24,05,59,15.00
2015,06,24,06,00,14.90
2015,06,24,06,01,14.90
2015,06,24,06,02,14.90
2015,06,24,06,03,14.80
2015,06,24,06,04,14.70
2015,06,24,06,05,14.70
2015,06,24,06,06,14.70
2015,06,24,06,07,14.60
2015,06,24,06,08,14.50
2015,06,24,06,09,14.40
2015,06,24,06,10,14.30
2015,06,24,06,11,14.30
2015,06,24,06,12,14.30
2015,06,24,06,13,14.20
2015,06,24,06,14,14.20
2015,06,24,06,15,14.20
2015,06,24,06,16,14.20
2015,06,24,06,17,14.20
2015,06,24,06,18,14.20
2015,06,24,06,19,14.10
2015,06,24,06,20,14.10
2015,06,24,06,21,14.10
2015,06,24,06,22,14.10
2015,06,24,06,23,14.10
2015,06,24,06,24,14.10
2015,06,24,06,25,14.20
2015,06,24,06,26,14.20
2015,06,24,06,27,14.20
2015,06,24,06,28,14.20
2015,06,24,06,29,14.20
2015,06,24,06,30,14.30
2015,06,24,06,31,14.30
2015,06,24,06,32,14.30
2015,06,24,06,33,14.40
2015,06,24,06,34,14.40
2015,06,24,06,35,14.40
2015,06,24,06,36,14.50
2015,06,24,06,37,14.50
2015,06,24,06,38,14.60
2015,06,24,06,39,14.60
2015,06,24,06,40,14.70
2015,06,24,06,41,14.70
2015,06,24,06,42,14.70
2015,06,24,06,43,14.70
2015,06,24,06,44,14.80
2015,06,24,06,45,14.80
2015,06,24,06,46,14.80
2015,06,24,06,47,14.70
2015,06,24,06,48,14.70
2015,06,24,06,49,14.70
2015,06,24,06,50,14.60
2015,06,24,06,51,14.60
2015,06,24,06,52,14.60
2015,06,24,06,53,14.60
2015,06,24,06,54,14.50
2015,06,24,06,55,14.50
2015,06,24,06,56,14.50
2015,06,24,06,57,14.40
2015,06,24,06,58,14.40
2015,06,24,06,59,14.40
2015,06,24,07,00,14.40
2015,06,24,07,01,14.40
2015,06,24,07,02,14.30
2015,06,24,07,03,14.30
2015,06,24,07,04,14.30
2015,06,24,07,05,14.30
2015,06,24,07,06,14.30
2015,06,24,07,07,14.20
2015,06,24,07,08,14.20
2015,06,24,07,09,14.20
2015,06,24,07,10,14.20
2015,06,24,07,11,14.20
2015,06,24,07,12,14.20
2015,06,24,07,13,14.20
2015,06,24,07,14,14.20
2015,06,24,07,15,14.20
2015,06,24,07,16,14.20
2015,06,24,07,17,14.20
2015,06,24,07,18,14.20
2015,06,24,07,19,14.30
2015,06,24,07,20,14.30
2015,06,24,07,21,14.30
2015,06,24,07,22,14.30
2015,06,24,07,23,14.40
2015,06,24,07,24,14.40
2015,06,24,07,25,14.50
2015,06,24,07,26,14.60
2015,06,24,07,27,14.60
2015,06,24,07,28,14.70
2015,06,24,07,29,14.70
2015,06,24,07,30,14.80
2015,06,24,07,31,14.90
2015,06,24,07,32,14.90
2015,06,24,07,33,14.90
2015,06,24,07,34,14.90
2015,06,24,07,35,14.90
2015,06,24,07,36,14.90
2015,06,24,07,37,14.80
2015,06,24,07,38,14.80
2015,06,24,07,39,14.80
2015,06,24,07,40,14.70
2015,06,24,07,41,14.70
2015,06,24,07,42,14.70
2015,06,24,07,43,14.70
2015,06,24,07,44,14.70
2015,06,24,07,45,14.70
2015,06,24,07,46,14.70
2015,06,24,07,47,14.70
2015,06,24,07,48,14.70
2015,06,24,07,49,14.70
2015,06,24,07,50,14.70
2015,06,24,07,51,14.80
2015,06,24,07,52,14.80
2015,06,24,07,53,14.80
2015,06,24,07,54,14.90
2015,06,24,07,55,14.90
2015,06,24,07,56,15.00
2015,06,24,07,57,15.10
2015,06,24,07,58,15.20
2015,06,24,07,59,15.20
2015,06,24,08,00,15.30
2015,06,24,08,01,15.40
2015,06,24,08,02,15.50
2015,06,24,08,03,15.60
2015,06,24,08,04,15.70
2015,06,24,08,05,15.70
2015,06,24,08,06,15.80
2015,06,24,08,07,15.90
2015,06,24,08,08,16.00
2015,06,24,08,09,16.10
2015,06,24,08,10,16.20
2015,06,24,08,11,16.20
2015,06,24,08,12,16.30
2015,06,24,08,13,16.30
2015,06,24,08,14,16.40
2015,06,24,08,15,16.40
2015,06,24,08,16,16.40
2015,06,24,08,17,16.50
2015,06,24,08,18,16.50
2015,06,24,08,19,16.50
2015,06,24,08,20,16.50
2015,06,24,08,21,16.50
2015,06,24,08,22,16.50
2015,06,24,08,23,16.40
2015,06,24,08,24,16.40
2015,06,24,08,25,16.40
2015,06,24,08,26,16.40
2015,06,24,08,27,16.40
2015,06,24,08,28,16.40
2015,06,24,08,29,16.40
2015,06,24,08,30,16.30
2015,06,24,08,31,16.30
2015,06,24,08,32,16.30
2015,06,24,08,33,16.30
2015,06,24,08,34,16.30
2015,06,24,08,35,16.30
2015,06,24,08,36,16.30
2015,06,24,08,37,16.40
2015,06,24,08,38,16.40
2015,06,24,08,39,16.50
2015,06,24,08,40,16.60
2015,06,24,08,41,16.60
2015,06,24,08,42,16.70
2015,06,24,08,43,16.70
2015,06,24,08,44,16.80
2015,06,24,08,45,16.90
2015,06,24,08,46,17.00
2015,06,24,08,47,17.00
2015,06,24,08,48,17.10
2015,06,24,08,49,17.10
2015,06,24,08,50,17.20
2015,06,24,08,51,17.20
2015,06,24,08,52,17.10
2015,06,24,08,53,17.10
2015,06,24,08,54,17.10
2015,06,24,08,55,17.00
2015,06,24,08,56,17.00
2015,06,24,08,57,17.00
2015,06,24,08,58,16.90
2015,06,24,08,59,16.90
2015,06,24,09,00,16.80
2015,06,24,09,01,16.80
2015,06,24,09,02,16.80
2015,06,24,09,03,16.70
2015,06,24,09,04,16.70
2015,06,24,09,05,16.70
2015,06,24,09,06,16.70
2015,06,24,09,07,16.70
2015,06,24,09,08,16.70
2015,06,24,09,09,16.70
2015,06,24,09,10,16.70
2015,06,24,09,11,16.70
2015,06,24,09,12,16.70
2015,06,24,09,13,16.60
2015,06,24,09,14,16.60
2015,06,24,09,15,16.60
2015,06,24,09,16,16.60
2015,06,24,09,17,16.50
2015,06,24,09,18,16.50
2015,06,24,09,19,16.50
2015,06,24,09,20,16.50
2015,06,24,09,21,16.50
2015,06,24,09,22,16.50
2015,06,24,09,23,16.50
2015,06,24,09,24,16.40
2015,06,24,09,25,16.40
2015,06,24,09,26,16.40
2015,06,24,09,27,16.40
2015,06,24,09,28,16.40
2015,06,24,09,29,16.40
2015,06,24,09,30,16.30
2015,06,24,09,31,16.30
2015,06,24,09,32,16.30
2015,06,24,09,33,16.30
2015,06,24,09,34,16.30
2015,06,24,09,35,16.30
2015,06,24,09,36,16.30
2015,06,24,09,37,16.30
2015,06,24,09,38,16.40
2015,06,24,09,39,16.50
2015,06,24,09,40,16.50
2015,06,24,09,41,16.60
2015,06,24,09,42,16.60
2015,06,24,09,43,16.70
2015,06,24,09,44,16.80
2015,06,24,09,45,16.90
2015,06,24,09,46,16.90
2015,06,24,09,47,16.90
2015,06,24,09,48,16.90
2015,06,24,09,49,16.90
2015,06,24,09,50,16.90
2015,06,24,09,51,16.90
2015,06,24,09,52,17.00
2015,06,24,09,53,17.00
2015,06,24,09,54,17.00
2015,06,24,09,55,16.90
2015,06,24,09,56,17.00
2015,06,24,09,57,17.00
2015,06,24,09,58,17.00
2015,06,24,09,59,17.10
2015,06,24,10,00,17.10
2015,06,24,10,01,17.10
2015,06,24,10,02,17.20
2015,06,24,10,03,17.20
2015,06,24,10,04,17.30
2015,06,24,10,05,17.30
2015,06,24,10,06,17.40
2015,06,24,10,07,17.50
2015,06,24,10,08,17.60
2015,06,24,10,09,17.60
2015,06,24,10,10,17.70
2015,06,24,10,11,17.60
2015,06,24,10,12,17.60
2015,06,24,10,13,17.60
2015,06,24,10,14,17.60
2015,06,24,10,15,17.60
2015,06,24,10,16,17.60
2015,06,24,10,17,17.60
2015,06,24,10,18,17.70
2015,06,24,10,19,17.70
2015,06,24,10,20,17.70
2015,06,24,10,21,17.80
2015,06,24,10,22,17.80
2015,06,24,10,23,17.90
2015,06,24,10,24,17.90
2015,06,24,10,25,18.00
2015,06,24,10,26,18.10
2015,06,24,10,27,18.20
2015,06,24,10,28,18.30
2015,06,24,10,29,18.40
2015,06,24,10,30,18.50
2015,06,24,10,31,18.60
2015,06,24,10,32,18.70
2015,06,24,10,33,18.80
2015,06,24,10,34,18.90
2015,06,24,10,35,19.00
2015,06,24,10,36,19.00
2015,06,24,10,37,19.10
2015,06,24,10,38,19.10
2015,06,24,10,39,19.10
2015,06,24,10,40,19.00
2015,06,24,10,41,19.00
2015,06,24,10,42,19.00
2015,06,24,10,43,18.90
2015,06,24,10,44,18.90
2015,06,24,10,45,18.90
2015,06,24,10,46,18.90
2015,06,24,10,47,18.90
2015,06,24,10,48,18.90
2015,06,24,10,49,18.90
2015,06,24,10,50,18.90
2015,06,24,10,51,18.90
2015,06,24,10,52,18.90
2015,06,24,10,53,18.90
2015,06,24,10,54,18.90
2015,06,24,10,55,18.90
2015,06,24,10,56,19.00
2015,06,24,10,57,19.00
2015,06,24,10,58,19.00
2015,06,24,10,59,19.10
2015,06,24,11,00,19.10
2015,06,24,11,01,19.20
2015,06,24,11,02,19.20
2015,06,24,11,03,19.10
2015,06,24,11,04,19.00
2015,06,24,11,05,18.90
2015,06,24,11,06,18.70
2015,06,24,11,07,18.60
2015,06,24,11,08,18.60
2015,06,24,11,09,18.60
2015,06,24,11,10,18.60
2015,06,24,11,11,18.60
2015,06,24,11,12,18.60
2015,06,24,11,13,18.60
2015,06,24,11,14,18.60
2015,06,24,11,15,18.70
2015,06,24,11,16,18.80
2015,06,24,11,17,18.90
2015,06,24,11,18,19.00
2015,06,24,11,19,19.00
2015,06,24,11,20,19.20
2015,06,24,11,21,19.40
2015,06,24,11,22,19.60
2015,06,24,11,23,19.70
2015,06,24,11,24,19.80
2015,06,24,11,25,20.00
2015,06,24,11,26,20.10
2015,06,24,11,27,20.30
2015,06,24,11,28,20.40
2015,06,24,11,29,20.50
2015,06,24,11,30,20.60
2015,06,24,11,31,20.70
2015,06,24,11,32,20.70
2015,06,24,11,33,20.80
2015,06,24,11,34,20.80
2015,06,24,11,35,20.90
2015,06,24,11,36,20.90
2015,06,24,11,37,21.00
2015,06,24,11,38,21.00
2015,06,24,11,39,21.00
2015,06,24,11,40,21.00
2015,06,24,11,41,21.10
2015,06,24,11,42,21.10
2015,06,24,11,43,21.10
2015,06,24,11,44,21.10
2015,06,24,11,45,21.10
2015,06,24,11,46,21.10
2015,06,24,11,47,21.10
2015,06,24,11,48,21.10
2015,06,24,11,49,21.00
2015,06,24,11,50,21.00
2015,06,24,11,51,21.00
2015,06,24,11,52,20.90
2015,06,24,11,53,20.90
2015,06,24,11,54,20.90
2015,06,24,11,55,20.90
2015,06,24,11,56,20.90
2015,06,24,11,57,20.90
2015,06,24,11,58,20.90
2015,06,24,11,59,20.90
2015,06,24,12,00,20.90
2015,06,24,12,01,20.90
2015,06,24,12,02,20.90
2015,06,24,12,03,20.90
2015,06,24,12,04,20.80
2015,06,24,12,05,20.80
2015,06,24,12,06,20.80
2015,06,24,12,07,20.80
2015,06,24,12,08,20.80
2015,06,24,12,09,20.80
2015,06,24,12,10,20.80
2015,06,24,12,11,20.80
2015,06,24,12,12,20.80
2015,06,24,12,13,20.90
2015,06,24,12,14,20.90
2015,06,24,12,15,20.90
2015,06,24,12,16,20.90
2015,06,24,12,17,20.90
2015,06,24,12,18,20.90
2015,06,24,12,19,20.90
2015,06,24,12,20,20.90
2015,06,24,12,21,20.90
2015,06,24,12,22,20.90
2015,06,24,12,23,20.90
2015,06,24,12,24,20.90
2015,06,24,12,25,20.90
2015,06,24,12,26,20.90
2015,06,24,12,27,20.90
2015,06,24,12,28,20.90
2015,06,24,12,29,20.90
2015,06,24,12,30,20.90
2015,06,24,12,31,20.90
2015,06,24,12,32,20.90
2015,06,24,12,33,20.90
2015,06,24,12,34,20.90
2015,06,24,12,35,20.90
2015,06,24,12,36,20.90
2015,06,24,12,37,20.90
2015,06,24,12,38,21.00
2015,06,24,12,39,21.00
2015,06,24,12,40,21.00
2015,06,24,12,41,21.00
2015,06,24,12,42,21.10
2015,06,24,12,43,21.10
2015,06,24,12,44,21.10
2015,06,24,12,45,21.10
2015,06,24,12,46,21.10
2015,06,24,12,47,21.10
2015,06,24,12,48,21.10
2015,06,24,12,49,21.10
2015,06,24,12,50,21.10
2015,06,24,12,51,21.10
2015,06,24,12,52,21.10
2015,06,24,12,53,21.10
2015,06,24,12,54,21.10
2015,06,24,12,55,21.00
2015,06,24,12,56,20.90
2015,06,24,12,57,20.90
2015,06,24,12,58,20.80
2015,06,24,12,59,20.80
2015,06,24,13,00,20.80
2015,06,24,13,01,20.80
2015,06,24,13,02,20.80
2015,06,24,13,03,20.80
2015,06,24,13,04,20.80
2015,06,24,13,05,20.80
2015,06,24,13,06,20.80
2015,06,24,13,07,20.80
2015,06,24,13,08,20.80
2015,06,24,13,09,20.80
2015,06,24,13,10,20.70
2015,06,24,13,11,20.60
2015,06,24,13,12,20.60
2015,06,24,13,13,20.60
2015,06,24,13,14,20.50
2015,06,24,13,15,20.50
2015,06,24,13,16,20.50
2015,06,24,13,17,20.50
2015,06,24,13,18,20.50
2015,06,24,13,19,20.40
2015,06,24,13,20,20.40
2015,06,24,13,21,20.40
2015,06,24,13,22,20.40
2015,06,24,13,23,20.40
2015,06,24,13,24,20.40
2015,06,24,13,25,20.40
2015,06,24,13,26,20.40
2015,06,24,13,27,20.40
2015,06,24,13,28,20.40
2015,06,24,13,29,20.40
2015,06,24,13,30,20.40
2015,06,24,13,31,20.40
2015,06,24,13,32,20.40
2015,06,24,13,33,20.40
2015,06,24,13,34,20.40
2015,06,24,13,35,20.40
2015,06,24,13,36,20.40
2015,06,24,13,37,20.40
2015,06,24,13,38,20.40
2015,06,24,13,39,20.40
2015,06,24,13,40,20.40
2015,06,24,13,41,20.40
2015,06,24,13,42,20.40
2015,06,24,13,43,20.40
2015,06,24,13,44,20.40
2015,06,24,13,45,20.40
2015,06,24,13,46,20.40
2015,06,24,13,47,20.40
2015,06,24,13,48,20.40
2015,06,24,13,49,20.40
2015,06,24,13,50,20.40
2015,06,24,13,51,20.50
2015,06,24,13,52,20.50
2015,06,24,13,53,20.60
2015,06,24,13,54,20.60
2015,06,24,13,55,20.70
2015,06,24,13,56,20.80
2015,06,24,13,57,20.80
2015,06,24,13,58,20.80
2015,06,24,13,59,20.80
2015,06,24,14,00,20.80
2015,06,24,14,01,20.80
2015,06,24,14,02,20.90
2015,06,24,14,03,21.00
2015,06,24,14,04,21.10
2015,06,24,14,05,21.10
2015,06,24,14,06,21.20
2015,06,24,14,07,21.20
2015,06,24,14,08,21.20
2015,06,24,14,09,21.20
2015,06,24,14,10,21.30
2015,06,24,14,11,21.30
2015,06,24,14,12,21.30
2015,06,24,14,13,21.30
2015,06,24,14,14,21.40
2015,06,24,14,15,21.50
2015,06,24,14,16,21.60
2015,06,24,14,17,21.60
2015,06,24,14,18,21.70
2015,06,24,14,19,21.80
2015,06,24,14,20,21.80
2015,06,24,14,21,21.90
2015,06,24,14,22,21.90
2015,06,24,14,23,21.90
2015,06,24,14,24,21.90
2015,06,24,14,25,21.90
2015,06,24,14,26,21.90
2015,06,24,14,27,21.90
2015,06,24,14,28,21.90
2015,06,24,14,29,21.90
2015,06,24,14,30,21.80
2015,06,24,14,31,21.80
2015,06,24,14,32,21.70
2015,06,24,14,33,21.70
2015,06,24,14,34,21.70
2015,06,24,14,35,21.60
2015,06,24,14,36,21.60
2015,06,24,14,37,21.60
2015,06,24,14,38,21.60
2015,06,24,14,39,21.50
2015,06,24,14,40,21.50
2015,06,24,14,41,21.50
2015,06,24,14,42,21.60
2015,06,24,14,43,21.60
2015,06,24,14,44,21.60
2015,06,24,14,45,21.60
2015,06,24,14,46,21.60
2015,06,24,14,47,21.60
2015,06,24,14,48,21.70
2015,06,24,14,49,21.70
2015,06,24,14,50,21.80
2015,06,24,14,51,21.80
2015,06,24,14,52,21.90
2015,06,24,14,53,21.90
2015,06,24,14,54,21.90
2015,06,24,14,55,21.90
2015,06,24,14,56,21.90
2015,06,24,14,57,21.90
2015,06,24,14,58,21.90
2015,06,24,14,59,22.00
2015,06,24,15,00,22.10
2015,06,24,15,01,22.10
2015,06,24,15,02,22.10
2015,06,24,15,03,22.00
2015,06,24,15,04,21.90
2015,06,24,15,05,21.80
2015,06,24,15,06,21.80
2015,06,24,15,07,21.90
2015,06,24,15,08,21.90
2015,06,24,15,09,21.90
2015,06,24,15,10,22.00
2015,06,24,15,11,22.00
2015,06,24,15,12,22.00
2015,06,24,15,13,21.90
2015,06,24,15,14,21.90
2015,06,24,15,15,21.90
2015,06,24,15,16,22.00
2015,06,24,15,17,22.00
2015,06,24,15,18,22.10
2015,06,24,15,19,22.10
2015,06,24,15,20,22.20
2015,06,24,15,21,22.20
2015,06,24,15,22,22.20
2015,06,24,15,23,22.20
2015,06,24,15,24,22.20
2015,06,24,15,25,22.20
2015,06,24,15,26,22.20
2015,06,24,15,27,22.20
2015,06,24,15,28,22.10
2015,06,24,15,29,22.10
2015,06,24,15,30,22.10
2015,06,24,15,31,22.20
2015,06,24,15,32,22.20
2015,06,24,15,33,22.30
2015,06,24,15,34,22.30
2015,06,24,15,35,22.30
2015,06,24,15,36,22.30
2015,06,24,15,37,22.30
2015,06,24,15,38,22.30
2015,06,24,15,39,22.30
2015,06,24,15,40,22.30
2015,06,24,15,41,22.20
2015,06,24,15,42,22.20
2015,06,24,15,43,22.10
2015,06,24,15,44,22.10
2015,06,24,15,45,22.10
2015,06,24,15,46,22.10
2015,06,24,15,47,22.10
2015,06,24,15,48,22.10
2015,06,24,15,49,22.10
2015,06,24,15,50,22.20
2015,06,24,15,51,22.20
2015,06,24,15,52,22.20
2015,06,24,15,53,22.20
2015,06,24,15,54,22.20
2015,06,24,15,55,22.20
2015,06,24,15,56,22.20
2015,06,24,15,57,22.20
2015,06,24,15,58,22.20
2015,06,24,15,59,22.30
2015,06,24,16,00,22.30
2015,06,24,16,01,22.30
2015,06,24,16,02,22.30
2015,06,24,16,03,22.30
2015,06,24,16,04,22.30
2015,06,24,16,05,22.30
2015,06,24,16,06,22.40
2015,06,24,16,07,22.40
2015,06,24,16,08,22.50
2015,06,24,16,09,22.50
2015,06,24,16,10,22.60
2015,06,24,16,11,22.60
2015,06,24,16,12,22.60
2015,06,24,16,13,22.60
2015,06,24,16,14,22.60
2015,06,24,16,15,22.70
2015,06,24,16,16,22.70
2015,06,24,16,17,22.70
2015,06,24,16,18,22.70
2015,06,24,16,19,22.70
2015,06,24,16,20,22.80
2015,06,24,16,21,22.90
2015,06,24,16,22,22.90
2015,06,24,16,23,23.00
2015,06,24,16,24,23.00
2015,06,24,16,25,23.00
2015,06,24,16,26,23.00
2015,06,24,16,27,23.00
2015,06,24,16,28,23.10
2015,06,24,16,29,23.10
2015,06,24,16,30,23.10
2015,06,24,16,31,23.10
2015,06,24,16,32,23.10
2015,06,24,16,33,23.10
2015,06,24,16,34,23.10
2015,06,24,16,35,23.20
2015,06,24,16,36,23.20
2015,06,24,16,37,23.20
2015,06,24,16,38,23.20
2015,06,24,16,39,23.20
2015,06,24,16,40,23.10
2015,06,24,16,41,23.10
2015,06,24,16,42,23.10
2015,06,24,16,43,23.10
2015,06,24,16,44,23.10
2015,06,24,16,45,23.10
2015,06,24,16,46,23.10
2015,06,24,16,47,23.10
2015,06,24,16,48,23.10
2015,06,24,16,49,23.10
2015,06,24,16,50,23.10
2015,06,24,16,51,23.10
2015,06,24,16,52,23.10
2015,06,24,16,53,23.10
2015,06,24,16,54,23.00
2015,06,24,16,55,23.00
2015,06,24,16,56,23.00
2015,06,24,16,57,22.90
2015,06,24,16,58,22.90
2015,06,24,16,59,23.00
2015,06,24,17,00,23.00
2015,06,24,17,01,23.00
2015,06,24,17,02,23.00
2015,06,24,17,03,23.10
2015,06,24,17,04,23.10
2015,06,24,17,05,23.20
2015,06,24,17,06,23.20
2015,06,24,17,07,23.20
2015,06,24,17,08,23.20
2015,06,24,17,09,23.20
2015,06,24,17,10,23.20
2015,06,24,17,11,23.30
2015,06,24,17,12,23.30
2015,06,24,17,13,23.30
2015,06,24,17,14,23.30
2015,06,24,17,15,23.30
2015,06,24,17,16,23.30
2015,06,24,17,17,23.30
2015,06,24,17,18,23.30
2015,06,24,17,19,23.20